EW6456 Weather Reports


time (UTC)temp
C
wind
direction
speed
KPH
gust
KPH
rain 1hr
cm
rain 24hr
cm
rain mn
cm
humidity
%
barometer
mb
20260504044554 12 217 0.0 0.0 0.00 0.00 0.00 46 1004.4
20260504043057 12 288 0.0 0.0 0.00 0.00 0.00 43 1004.4
20260504041551 13 5 0.0 1.6 0.00 0.00 0.00 42 1004.5
20260504040048 13 138 0.0 0.0 0.00 0.00 0.00 45 1004.5
20260504034545 13 209 0.0 0.0 0.00 0.00 0.00 44 1004.1
20260504033039 16 188 0.0 0.0 0.00 0.00 0.00 36 1004.1
20260504031535 18 13 1.6 9.7 0.00 0.00 0.00 29 1003.8
20260504030034 17 323 0.0 9.7 0.00 0.00 0.00 31 1003.8
20260504024535 17 224 0.0 8.0 0.00 0.00 0.00 33 1003.7
20260504023003 18 0.0 0.0 0.00 0.00 0.00 31 1003.6
20260504021502 19 288 0.0 1.6 0.00 0.00 0.00 30 1003.6
20260504020041 19 205 0.0 4.8 0.00 0.00 0.00 31 1003.5
20260504014538 20 329 0.0 3.2 0.00 0.00 0.00 29 1003.6
20260504013118 21 196 3.2 22.5 0.00 0.00 0.00 27 1003.5
20260504011600 22 311 0.0 14.5 0.00 0.00 0.00 25 1003.7
20260504010054 22 200 6.4 25.7 0.00 0.00 0.00 24 1003.8
20260504004625 22 9 0.0 29.0 0.00 0.00 0.00 24 1003.8
20260504003059 22 174 12.9 29.0 0.00 0.00 0.00 25 1003.9
20260504001619 22 56 4.8 25.7 0.00 0.00 0.00 25 1004.1
20260504000020 23 0.0 14.5 0.00 0.00 0.00 23 1004.1
20260503234518 23 190 3.2 24.1 0.00 0.00 0.00 21 1004.2
20260503233047 23 329 14.5 27.4 0.00 0.00 0.00 18 1004.3
20260503231545 23 133 3.2 20.9 0.00 0.00 0.00 17 1004.4
20260503230056 23 165 6.4 25.7 0.00 0.00 0.00 19 1004.6
20260503224539 23 328 1.6 20.9 0.00 0.00 0.00 23 1004.8
20260503223035 23 117 0.0 20.9 0.00 0.00 0.00 22 1005.0
20260503221533 23 101 1.6 16.1 0.00 0.00 0.00 22 1005.2
20260503220040 23 328 0.0 19.3 0.00 0.00 0.00 20 1005.5
20260503214524 23 242 1.6 19.3 0.00 0.00 0.00 20 1005.8
20260503213021 23 98 3.2 20.9 0.00 0.00 0.00 21 1006.1
20260503211518 23 79 17.7 33.8 0.00 0.00 0.00 20 1006.5
20260503210046 23 238 0.0 33.8 0.00 0.00 0.00 21 1006.8
20260503204543 22 0.0 17.7 0.00 0.00 0.00 21 1007.1
20260503203047 22 163 0.0 17.7 0.00 0.00 0.00 21 1007.3
20260503201535 22 1 0.0 11.3 0.00 0.00 0.00 29 1007.5
20260503200030 22 328 6.4 20.9 0.00 0.00 0.00 31 1007.8
20260503194538 21 258 0.0 11.3 0.00 0.00 0.00 32 1008.0
20260503193020 21 243 12.9 27.4 0.00 0.00 0.00 35 1008.3
20260503191517 21 53 1.6 16.1 0.00 0.00 0.00 33 1008.7
20260503190013 20 0.0 14.5 0.00 0.00 0.00 35 1009.1
20260503184521 20 311 0.0 16.1 0.00 0.00 0.00 34 1009.4
20260503183009 20 307 3.2 14.5 0.00 0.00 0.00 35 1009.6
20260503181536 20 261 0.0 27.4 0.00 0.00 0.00 35 1009.8
20260503180035 20 0.0 4.8 0.00 0.00 0.00 35 1010.2
20260503174526 20 293 4.8 24.1 0.00 0.00 0.00 34 1010.5
20260503173023 19 129 0.0 20.9 0.00 0.00 0.00 34 1010.7
20260503171520 18 174 0.0 22.5 0.00 0.00 0.00 39 1010.9